Wednesday, August 20, 2014
20:32 UTC
  |  Log In   |  Register Free
Airport Search:

South Big Horn County Airport
(KGEY)

South Big Horn County Airport Diagram
No Airport Diagram Available

FAA data valid effective July 24, 2014 until September 18, 2014 (unless otherwise noted).

 
 
 
 
 
 
 
 
 
 
 
 
 
 

Current Aviation Weather for South Big Horn County Airport (KGEY)

The most recent METAR observation for KGEY was updated at: 1753 UTC
METAR Summary (Translated METAR)
KGEY
281753Z AUTO VRB03KT 10SM CLR 29/03 A3023 RMK AO2 SLP196 T02940033 10306 20133 58012
KWRL
(33.8 nm SE from KGEY)
281853Z AUTO VRB04KT 10SM CLR 31/07 A3022 RMK AO2 SLP184 T03110067
TAF Summary (Translated TAF)
KWRL
(33.8 nm SE from KGEY)
201720Z 2018/2118 VRB06KT P6SM VCSH SCT080 BKN110 FM202000 VRB10KT P6SM VCSH SCT070 BKN100 FM210200 VRB05KT P6SM FEW080 BKN110
KCOD
(40.3 nm NW from KGEY)
201720Z 2018/2118 24007KT P6SM SCT090 BKN110 FM202000 VRB11KT P6SM VCTS SCT070CB BKN100 FM210300 VRB06KT P6SM VCSH OVC070 FM210800 20007KT P6SM SCT080 BKN150 AMD LTD TO CLD VIS AND WIND
  Airport Weather Conditions for KGEY

Current weather conditions are
not available for GEY


The nearest NOAA weather station
is at WRL, (33.8 nm SE from GEY)
  
 Current Weather at WRL
81° F
Fair
Variable winds at 4.6 mph
WRL NOAA Radar

Pressure: 29.86 in
Humidity: 27%
Wind: Variable at 4.6 MPH (4 KT)
Dew Point: 44.1°F
Visibility: 10.00 mi


Airport Weather Forecast for KGEY

Translated METAR and TAF for KGEY
Translated METAR for KGEY (2026 UTC 20 August 2014)
found at http://aviationweather.gov/adds/metars/
 
METAR text: KGEY 201953Z AUTO VRB04KT 10SM CLR 27/06 A2984 RMK AO2 SLP064 T02670056
Conditions at: KGEY (GREYBULL , WY, US) observed 1953 UTC 20 August 2014
Temperature: 26.7°C (80°F)
Dewpoint: 5.6°C (42°F) [RH = 26%]
Pressure (altimeter): 29.84 inches Hg (1010.6 mb)
[Sea-level pressure: 1006.4 mb]
Winds: variable direction winds at 5 MPH (4 knots; 2.1 m/s)
Visibility: 10 or more miles (16+ km)
Ceiling: at least 12,000 feet AGL
Clouds: sky clear below 12,000 feet AGL
Weather: automated observation with no human augmentation;
there may or may not be significant weather present at this time
Translated TAF for KGEY

There is no translated TAF available for this airport

Find All Airport Services Find A Hotel Find A Rental Car Find A Golf Course Find A Restaurant $100 Hamburger



FBO's on the Field
FBO Company Facility Photos Services Transportation Aviation Fuel Prices: Prices include tax
Catering Weather Repair Courtesy Rental Type 100LL JetA JetA+ MOGAS 8087
 
B & G Industries, LLC

This FBO has not yet been rated
FS:Independent
Last Updated: Jul-24
Login to update fuel prices
SS:
Contact B & G Industries, LLCMore FBO Information
 
South Big Horn County Airport

This FBO has not yet been rated
FS:Independent
Last Updated: Aug-05
Login to update fuel prices
SS:
Contact South Big Horn County AirportMore FBO Information
 
Add another FBO Facility Photos Catering Weather Repair Courtesy Rental Type 100LL JetA JetA+ MOGAS 8087
Services Transportation Aviation Fuel Prices: Prices include tax


GlobalAir.com Airport Resource Center model-print
model-print
model-print
model-print